Location: D�derode
(51.8092°N, 10.1065°E)
Time: 23:40:12
(UTC+00:00)

Cosmos 1869 Rocket - Pass Details

Date: 23 April 2021
Orbit: 603 x 634 km, 82.5° (Epoch: 14 May)

Event Time Altitude Azimuth Distance (km) Brightness Sun altitude
Rises 00:47:50 0° 337° (NNW) 2,894 7.6 -22.8°
Reaches altitude 10° 00:50:35 10° 320° (NW) 1,977 6.4 -22.6°
Enters shadow 00:53:04 19° 286° (WNW) 1,487 5.4 -22.4°
